Weather in Bereza

Ukraine / Sumi District     51°43′49″N   33°51′58″E
temp.,
°C
wind,
m/s
gust,
m/s
humid.,
%
clouds,
%
prec.,
mm/h
press.,
hPa
HPBL,
m
18 may, tue
tue1800:00+16sse3896100 0.6 1003202
03:00+15sse2398100 0.8 100482
06:00+14se3597100 0.3 1004157
09:00+16ese2497100 5.3 1004192
12:00+15ese4697100 5.5 1004291
15:00+17ese4787100 7.4 1002482
18:00+17se4887100 0.8 1001650
21:00+15sse4993100 1.4 1001219
19 may, wed
wed1900:00+14sse4109522 0.0 1001270
03:00+12se499793 0.0 1002228
06:00+12se51198100 0.0 1003448
09:00+13se5891100 0.0 1004676
12:00+14se5782100 0.0 1005865
15:00+18sse4571100 0.0 1005992
18:00+16ese4579100 0.3 1004609
21:00+13ese4894100 0.9 1004247
20 may, thu
thu2000:00+12se1196100 1.1 100433
03:00+11ssw1197100 3.6 100339
06:00+11ssw2498100 6.4 1002232
09:00+12w4697100 8.8 1003454
12:00+11w5796100 0.3 1006588
15:00+11w5793100 0.4 1008566
18:00+11wnw389343 0.4 1010536
21:00+9nw359382 0.4 101287
21 may, fri
fri2100:00+8wsw2291100 0.0 101425
03:00+8wsw118998 0.0 101412
06:00+9w229186 0.0 101567
09:00+13n237881 0.0 1016522
12:00+17nne336043 0.0 10161223
15:00+18ene3457100 0.0 10151627
18:00+13se3588100 1.3 1016141
21:00+11n3692100 2.8 1017190
22 may, sat
sat2200:00+11ne4987100 0.9 1017190
03:00+11ne3990100 0.9 1016221
06:00+11ne41092100 0.0 1016322
09:00+12ne51097100 1.6 1016422
12:00+12ne61196100 1.6 1016413
15:00+16ne71183100 1.7 1015873
18:00+17ene698238 0.1 1014779
21:00+14ne4991100 0.1 1014360